PBO Station Position Time Series. Reference Frame : NAM14
Format Version,1.1.1
4-character ID,P409
Station name,VernoniaAPOR2005
Begin Date, 2005-07-02
End Date, 2023-06-26
Release Date, 2023-06-27
Reference position, 45.8512936273 North Latitude, -123.2394777750 East Longitude, 177.30298 meters elevation,
Date, North (mm), East (mm), Vertical (mm), North Std. Deviation (mm), East Std. Deviation (mm),              Vertical Std. Deviation (mm), Quality,
2005-07-02,0.00, 0.00, 0.00, 2.23, 1.55, 7.01, repro,
2005-07-03,-1.21, 0.35, -3.01, 2.25, 1.56, 7.06, repro,
2005-07-04,0.13, -0.02, 0.64, 2.24, 1.56, 7.02, repro,
2005-07-05,0.27, 0.50, -6.13, 2.30, 1.61, 7.24, repro,
2005-07-06,-0.63, -1.27, -3.15, 2.24, 1.56, 7.08, repro,
2005-07-07,-0.40, -0.49, 2.61, 2.31, 1.59, 7.16, repro,
2005-07-08,-1.73, -1.67, 6.74, 2.23, 1.57, 7.10, repro,
2005-07-09,-0.27, -0.37, 1.61, 2.24, 1.57, 7.10, repro,
2005-07-10,-1.05, 1.21, 7.91, 2.29, 1.62, 7.23, repro,
2005-07-11,-1.79, -0.67, 4.03, 2.25, 1.56, 7.06, repro,
2005-07-12,0.08, -0.87, -3.24, 2.25, 1.57, 7.10, repro,
2005-07-13,1.86, 0.74, -1.04, 2.23, 1.57, 7.06, repro,
2005-07-14,1.57, 0.50, -0.14, 2.26, 1.61, 7.29, repro,
2005-07-15,-0.04, 0.21, 2.52, 2.25, 1.55, 7.07, repro,
2005-07-16,1.36, 0.82, -3.17, 2.25, 1.56, 7.09, repro,
2005-07-17,0.76, 1.69, -3.63, 2.25, 1.57, 7.10, repro,
2005-07-18,0.09, 1.12, 1.24, 2.26, 1.57, 7.16, repro,
2005-07-19,1.14, -1.15, 1.59, 2.22, 1.57, 7.10, repro,
2005-07-20,1.00, 0.90, 2.90, 2.23, 1.56, 7.13, repro,
2005-07-21,0.45, 0.20, 2.25, 2.31, 1.62, 7.30, repro,
2005-07-22,1.17, -1.49, 4.42, 2.29, 1.60, 7.32, repro,
2005-07-23,2.66, 0.30, -3.39, 2.25, 1.56, 7.11, repro,
2005-07-24,1.78, 0.79, 3.28, 2.28, 1.60, 7.31, repro,
2005-07-25,0.28, 0.04, 3.72, 2.26, 1.60, 7.30, repro,
2005-07-26,0.75, 0.64, 3.74, 2.29, 1.65, 7.50, repro,
2005-07-27,1.37, 1.25, 0.58, 2.34, 1.65, 7.44, repro,
2005-07-28,0.55, 1.64, -5.00, 2.33, 1.65, 7.41, repro,
2005-07-29,1.43, 1.49, -0.19, 2.27, 1.60, 7.31, repro,
2005-07-30,0.39, 0.93, 2.23, 2.27, 1.60, 7.33, repro,
2005-07-31,0.91, 1.63, 3.91, 2.29, 1.61, 7.39, repro,
2005-08-01,1.09, 1.05, 1.98, 2.29, 1.60, 7.34, repro,
2005-08-02,-0.08, 0.48, -0.09, 2.29, 1.60, 7.30, repro,
2005-08-03,1.24, 0.81, 8.42, 2.22, 1.56, 7.01, repro,
2005-08-04,0.54, 2.15, 2.85, 2.24, 1.56, 7.09, repro,
2005-08-05,1.46, 0.87, -3.06, 2.26, 1.58, 7.24, repro,
2005-08-06,0.52, 0.85, 3.16, 2.25, 1.56, 7.11, repro,
2005-08-07,-0.13, 0.94, -8.03, 2.26, 1.56, 7.10, repro,
2005-08-08,3.09, -0.19, -4.13, 2.24, 1.56, 7.06, repro,
2005-08-09,1.38, 0.03, 3.26, 2.24, 1.57, 7.13, repro,
2005-08-10,0.39, 0.78, 3.31, 2.25, 1.58, 7.21, repro,
2005-08-11,1.45, 1.70, -1.54, 2.30, 1.63, 7.33, repro,
2005-08-12,1.02, 2.49, -0.20, 2.29, 1.63, 7.28, repro,
2005-08-13,1.11, 0.50, 0.89, 2.24, 1.56, 7.09, repro,
2005-08-14,0.98, 0.92, 0.28, 2.35, 1.69, 7.43, repro,
2005-08-15,-1.04, -0.44, 5.75, 2.29, 1.62, 7.30, repro,
2005-08-16,2.72, -0.32, -1.71, 2.32, 1.63, 7.35, repro,
2005-08-17,0.48, 0.41, 4.44, 2.33, 1.65, 7.43, repro,
2005-08-18,0.94, 0.21, 4.26, 2.26, 1.57, 7.16, repro,
2005-08-19,-0.01, -0.09, 1.36, 2.23, 1.56, 7.08, repro,
2005-08-20,-0.26, 0.53, 2.48, 2.25, 1.57, 7.14, repro,
2005-08-21,-0.53, 1.56, 1.32, 2.24, 1.57, 7.13, repro,
2005-08-22,0.58, 0.36, -1.14, 2.26, 1.58, 7.20, repro,
2005-08-23,2.30, -1.63, 1.36, 2.26, 1.57, 7.15, repro,
2005-08-24,0.49, 0.61, 4.38, 2.25, 1.56, 7.15, repro,
2005-08-25,1.57, 0.22, 3.22, 2.25, 1.56, 7.08, repro,
2005-08-26,-0.27, 0.46, 6.26, 2.23, 1.57, 7.14, repro,
2005-08-27,2.06, 0.87, 7.19, 2.25, 1.58, 7.17, repro,
2005-08-28,0.36, 0.58, 1.95, 2.25, 1.57, 7.14, repro,
2005-08-29,0.87, -0.93, 5.36, 2.26, 1.58, 7.22, repro,
2005-08-30,1.15, 0.87, 2.83, 2.23, 1.56, 7.06, repro,
2005-08-31,1.34, 0.74, -1.51, 2.22, 1.56, 7.08, repro,
2005-09-01,1.72, 0.79, 4.80, 2.25, 1.56, 7.12, repro,
2005-09-02,0.49, 1.13, 7.72, 2.24, 1.56, 7.14, repro,
2005-09-03,-0.87, -0.41, 6.92, 2.25, 1.57, 7.13, repro,
2005-09-04,0.70, -1.72, 8.94, 2.29, 1.60, 7.27, repro,
2005-09-05,1.08, 0.58, 4.46, 2.23, 1.56, 7.08, repro,
2005-09-06,2.77, -0.44, 0.79, 2.23, 1.55, 7.07, repro,
2005-09-07,0.33, 1.28, 2.23, 2.36, 1.58, 7.27, repro,
2005-09-08,1.05, 0.15, 5.43, 2.33, 1.58, 7.23, repro,
2005-09-09,2.47, -2.67, 9.62, 2.31, 1.57, 7.18, repro,
2005-09-10,-0.75, -0.29, 1.02, 2.32, 1.57, 7.17, repro,
2005-09-11,1.41, -0.31, 7.16, 2.30, 1.58, 7.17, repro,
2005-09-12,-0.05, 0.03, 3.82, 2.30, 1.57, 7.18, repro,
2005-09-13,0.65, -0.05, 5.19, 2.45, 1.67, 7.59, repro,
2005-09-14,-0.43, -0.21, 6.41, 2.35, 1.62, 7.37, repro,
2005-09-15,2.73, -0.40, 2.25, 2.36, 1.62, 7.37, repro,
2005-09-16,0.13, 0.56, 4.49, 2.34, 1.62, 7.34, repro,
2005-09-17,2.20, -0.39, 0.86, 2.21, 1.54, 7.02, repro,
2005-09-18,1.56, -1.26, 8.42, 2.24, 1.56, 7.15, repro,
2005-09-19,0.89, -0.57, 4.50, 2.32, 1.58, 7.35, repro,
2005-09-20,1.94, -0.30, 1.77, 2.24, 1.55, 7.12, repro,
2005-09-21,1.09, 0.01, -0.84, 2.28, 1.58, 7.29, repro,
2005-09-22,2.58, -1.41, -1.54, 2.22, 1.55, 7.07, repro,
2005-09-23,1.91, -0.79, -0.38, 2.26, 1.56, 7.15, repro,
2005-09-24,1.55, -0.25, 5.12, 2.30, 1.61, 7.32, repro,
2005-09-25,1.48, 0.67, 6.08, 2.28, 1.59, 7.26, repro,
2005-09-26,1.73, -0.21, 5.87, 2.27, 1.60, 7.25, repro,
2005-09-27,-0.10, 0.45, 5.33, 2.28, 1.60, 7.27, repro,
2005-09-28,0.05, -0.65, 9.47, 2.32, 1.58, 7.25, repro,
2005-09-29,0.89, -0.41, 18.52, 2.33, 1.59, 7.24, repro,
2005-09-30,-1.71, 0.68, 13.16, 2.26, 1.57, 7.20, repro,
2005-10-01,1.14, 0.79, 13.40, 2.26, 1.56, 7.20, repro,
2005-10-02,-0.81, -1.52, 2.35, 2.27, 1.60, 7.22, repro,
2005-10-03,1.04, -0.69, 6.54, 2.28, 1.59, 7.20, repro,
2005-10-04,1.37, 0.47, 2.21, 2.32, 1.59, 7.31, repro,
2005-10-05,0.79, 0.86, -2.29, 2.27, 1.56, 7.12, repro,
2005-10-06,0.26, 0.38, 0.98, 2.25, 1.56, 7.15, repro,
2005-10-07,-0.65, -0.80, 7.12, 2.29, 1.57, 7.14, repro,
2005-10-08,0.20, -0.68, 8.77, 2.24, 1.55, 7.00, repro,
2005-10-09,0.96, -0.40, 5.34, 2.27, 1.57, 7.10, repro,
2005-10-10,-0.18, -0.00, -0.07, 2.27, 1.57, 7.10, repro,
2005-10-11,0.31, -0.23, 5.70, 2.31, 1.62, 7.25, repro,
2005-10-12,-0.02, 0.29, 1.14, 2.31, 1.62, 7.27, repro,
2005-10-13,0.08, -0.40, 5.91, 2.28, 1.61, 7.26, repro,
2005-10-14,1.48, -1.43, 10.05, 2.27, 1.57, 7.14, repro,
2005-10-15,-1.69, -0.99, 4.58, 2.28, 1.57, 7.14, repro,
2005-10-16,1.04, 0.81, 5.63, 2.34, 1.59, 7.44, repro,
2005-10-17,0.08, -0.66, 8.47, 2.27, 1.59, 7.14, repro,
2005-10-18,1.69, -0.01, 7.42, 2.38, 1.69, 7.52, repro,
2005-10-19,0.87, 0.14, 6.86, 2.30, 1.62, 7.30, repro,
2005-10-20,0.26, -0.66, 0.25, 2.34, 1.60, 7.23, repro,
2005-10-21,0.73, 0.30, 6.97, 2.35, 1.64, 7.48, repro,
2005-10-22,1.48, 0.14, 2.19, 2.26, 1.56, 7.05, repro,
2005-10-23,2.24, -0.15, 4.14, 2.31, 1.62, 7.28, repro,
2005-10-24,1.05, 0.31, 1.78, 2.31, 1.62, 7.25, repro,
2005-10-25,0.65, -0.11, 8.14, 2.32, 1.63, 7.35, repro,
2005-10-26,1.00, -0.19, 4.96, 2.37, 1.68, 7.51, repro,
2005-10-27,1.78, -0.52, 2.92, 2.30, 1.60, 7.25, repro,
2005-10-28,0.75, -2.34, 1.77, 2.27, 1.58, 7.11, repro,
2005-10-29,0.19, 0.25, 3.83, 2.29, 1.63, 7.35, repro,
2005-10-30,1.72, -0.17, -1.35, 2.31, 1.61, 7.28, repro,
2005-10-31,1.24, -0.31, 2.54, 2.43, 1.70, 7.70, repro,
2005-11-01,2.69, -0.94, 4.56, 2.47, 1.76, 7.92, repro,
2005-11-02,0.98, -0.85, 2.72, 2.49, 1.80, 7.89, repro,
2005-11-03,1.66, -0.80, 5.69, 2.32, 1.63, 7.27, repro,
2005-11-04,2.98, -0.40, 6.88, 2.37, 1.67, 7.49, repro,
2005-11-05,1.50, 0.83, 2.64, 2.43, 1.75, 7.71, repro,
2005-11-06,2.93, -0.03, 5.59, 2.36, 1.69, 7.44, repro,
2005-11-07,3.22, -0.27, -4.43, 2.42, 1.74, 7.67, repro,
2005-11-08,1.75, -0.15, -8.09, 2.41, 1.72, 7.63, repro,
2005-11-09,2.26, 0.98, -0.43, 2.47, 1.82, 7.98, repro,
2005-11-10,1.21, 0.98, -1.21, 2.57, 1.83, 8.13, repro,
2005-11-11,1.61, -0.44, 0.14, 2.45, 1.70, 7.79, repro,
2005-11-12,0.97, 0.43, 8.00, 2.27, 1.63, 7.21, repro,
2005-11-13,-0.11, 1.83, -2.59, 2.40, 1.68, 7.57, repro,
2005-11-14,3.25, 0.31, -3.97, 2.36, 1.67, 7.47, repro,
2005-11-15,1.61, 1.25, -13.41, 2.26, 1.57, 7.15, repro,
2005-11-16,2.47, 0.19, -12.64, 2.31, 1.61, 7.28, repro,
2005-11-17,2.50, -0.08, -9.66, 2.25, 1.57, 7.13, repro,
2005-11-18,1.52, 0.49, -8.76, 2.26, 1.57, 7.15, repro,
2005-11-19,1.58, 0.17, -6.43, 2.27, 1.58, 7.18, repro,
2005-11-20,0.70, 1.52, -6.42, 2.36, 1.65, 7.53, repro,
2005-11-21,0.21, 1.11, -3.20, 2.44, 1.66, 7.59, repro,
2005-11-22,1.38, 0.50, -3.90, 2.35, 1.67, 7.49, repro,
2005-11-23,1.62, 0.52, 2.11, 2.33, 1.65, 7.45, repro,
2005-11-24,0.95, 0.59, 1.20, 2.25, 1.58, 7.17, repro,
2005-11-25,0.93, 0.52, 2.47, 2.28, 1.61, 7.27, repro,
2005-11-26,-1.19, 0.58, -1.71, 2.37, 1.68, 7.59, repro,
2005-11-27,1.24, 0.79, -2.47, 2.32, 1.65, 7.43, repro,
2005-11-28,1.83, 0.34, -2.73, 2.36, 1.66, 7.55, repro,
2005-11-29,-0.73, -0.94, -2.89, 2.36, 1.62, 7.36, repro,
2005-11-30,1.97, -0.57, -9.53, 2.28, 1.60, 7.22, repro,
2005-12-01,1.00, -0.13, -4.23, 2.26, 1.59, 7.16, repro,
2005-12-02,-0.11, -0.27, -4.51, 2.27, 1.60, 7.22, repro,
2005-12-03,1.18, 0.22, -3.16, 2.26, 1.58, 7.15, repro,
2005-12-04,1.26, 0.57, -10.10, 2.24, 1.55, 7.05, repro,
2005-12-05,1.79, 0.01, -13.49, 2.27, 1.59, 7.16, repro,
2005-12-06,0.23, 0.74, -12.38, 2.25, 1.57, 7.12, repro,
2005-12-07,-0.10, 0.94, -8.36, 2.30, 1.63, 7.34, repro,
2005-12-08,-0.56, 0.48, -5.04, 2.31, 1.63, 7.34, repro,
2005-12-09,0.38, 0.22, -1.43, 2.28, 1.58, 7.18, repro,
2005-12-10,-1.27, 0.57, -6.07, 2.28, 1.58, 7.16, repro,
2005-12-11,-0.32, -0.19, -3.56, 2.26, 1.57, 7.14, repro,
2005-12-12,-0.10, -0.57, -2.98, 2.25, 1.57, 7.13, repro,
2005-12-13,-0.34, -0.31, -3.70, 2.26, 1.56, 7.12, repro,
2005-12-14,-0.30, -0.71, -9.52, 2.27, 1.58, 7.17, repro,
2005-12-15,0.21, -0.41, -9.34, 2.35, 1.60, 7.35, repro,
2005-12-16,0.09, -0.19, -2.40, 2.26, 1.56, 7.11, repro,
2005-12-17,-1.19, -0.98, -2.07, 2.34, 1.64, 7.34, repro,
2005-12-18,0.04, -1.18, -1.70, 2.24, 1.61, 7.13, repro,
2005-12-19,0.77, 0.13, -7.91, 2.44, 1.75, 7.74, repro,
2005-12-20,-1.41, -2.30, -5.98, 2.33, 1.68, 7.36, repro,
2005-12-21,-0.89, -0.26, -2.06, 2.32, 1.67, 7.34, repro,
2005-12-22,2.16, -0.38, -4.81, 2.33, 1.69, 7.39, repro,
2005-12-23,-1.24, -0.85, 1.21, 2.39, 1.70, 7.49, repro,
2005-12-24,-1.48, -2.82, -5.56, 2.47, 1.81, 8.01, repro,
2005-12-25,0.69, -0.16, 3.43, 2.31, 1.65, 7.29, repro,
2005-12-26,-1.65, -2.41, 2.60, 2.29, 1.59, 7.10, repro,
2005-12-27,-1.59, -2.68, -1.51, 2.32, 1.65, 7.31, repro,
2005-12-28,-2.49, -1.16, 1.14, 2.27, 1.61, 7.11, repro,
2005-12-29,-3.92, -0.21, 1.50, 2.39, 1.73, 7.68, repro,
2005-12-30,-3.11, -0.69, 2.61, 2.43, 1.77, 7.94, repro,
2005-12-31,-2.73, -1.80, 7.39, 2.43, 1.74, 7.73, repro,
2006-01-02,-2.58, -1.88, 3.32, 2.41, 1.70, 7.42, repro,
2006-01-03,-3.87, -1.39, -0.48, 2.51, 1.86, 8.10, repro,
2006-01-04,-2.85, -1.33, -10.61, 2.42, 1.83, 7.85, repro,
2006-01-05,-3.34, -0.37, -11.50, 2.36, 1.72, 7.62, repro,
2006-01-06,-2.75, -0.72, 1.08, 2.43, 1.75, 7.79, repro,
2006-01-07,-2.30, -2.08, -0.33, 2.29, 1.61, 7.13, repro,
2006-01-08,-2.44, 0.02, -1.88, 2.33, 1.72, 7.53, repro,
2006-01-09,-2.73, -2.42, 1.76, 2.43, 1.83, 7.85, repro,
2006-01-10,-1.50, -0.41, 6.29, 2.40, 1.77, 7.75, repro,
2006-01-11,-1.66, -1.03, 4.87, 2.38, 1.72, 7.56, repro,
2006-01-12,-2.88, -1.27, -4.16, 2.38, 1.73, 7.44, repro,
2006-01-13,-1.93, -0.97, 3.76, 2.45, 1.78, 7.99, repro,
2006-01-14,-0.65, 0.06, -1.37, 2.34, 1.66, 7.36, repro,
2006-01-15,-1.54, 0.43, 0.88, 2.27, 1.61, 7.13, repro,
2006-01-16,-3.21, -0.62, -4.85, 2.39, 1.78, 7.70, repro,
2006-01-17,-0.44, 0.34, 3.48, 2.32, 1.65, 7.24, repro,
2006-01-18,-1.95, -0.09, 0.95, 2.29, 1.59, 7.13, repro,
2006-01-19,-2.11, -0.38, -4.22, 2.33, 1.62, 7.35, repro,
2006-01-20,-1.74, -0.15, -6.31, 2.32, 1.61, 7.28, repro,
2006-01-21,-1.62, -0.16, -0.48, 2.27, 1.58, 7.04, repro,
2006-01-22,-2.73, 0.00, -5.09, 2.26, 1.57, 7.02, repro,
2006-01-23,-2.61, 0.34, -5.90, 2.27, 1.56, 7.04, repro,
2006-01-24,-1.60, 0.19, -8.42, 2.32, 1.62, 7.19, repro,
2006-01-25,-0.92, -1.29, -3.71, 2.22, 1.55, 6.98, repro,
2006-01-26,-3.51, -1.19, -5.93, 2.22, 1.54, 6.96, repro,
2006-01-27,-2.25, -0.43, -11.60, 2.21, 1.53, 6.90, repro,
2006-01-28,-1.66, -0.32, -10.14, 2.22, 1.54, 6.96, repro,
2006-01-29,-3.40, -0.11, -2.07, 2.21, 1.53, 6.92, repro,
2006-01-30,-0.62, 1.06, 3.14, 2.24, 1.55, 7.04, repro,
2006-01-31,-0.99, -0.28, 0.95, 2.22, 1.55, 7.01, repro,
2006-02-01,-2.83, 0.05, 5.20, 2.22, 1.53, 6.94, repro,
2006-02-02,-3.53, -1.08, 0.13, 2.22, 1.53, 6.96, repro,
2006-02-03,-3.10, -0.66, 0.37, 2.22, 1.53, 6.97, repro,
2006-02-04,-2.10, 2.13, 1.32, 2.22, 1.54, 7.04, repro,
2006-02-05,-2.56, 0.10, -8.41, 2.24, 1.54, 7.05, repro,
2006-02-06,-2.83, 0.85, -4.55, 2.24, 1.54, 7.04, repro,
2006-02-07,-3.05, 0.43, -10.33, 2.22, 1.53, 6.96, repro,
2006-02-08,-2.16, 0.50, -12.60, 2.22, 1.52, 6.98, repro,
2006-02-09,-2.67, 0.34, -12.89, 2.30, 1.54, 7.09, repro,
2006-02-10,-2.74, 0.82, -10.79, 2.39, 1.58, 7.24, repro,
2006-02-11,-2.02, 0.85, -12.66, 2.23, 1.53, 7.02, repro,
2006-02-12,-1.69, 0.54, -14.75, 2.23, 1.52, 6.98, repro,
2006-02-13,-1.56, 0.64, -7.50, 2.22, 1.52, 6.94, repro,
2006-02-14,-2.56, 0.69, -6.25, 2.22, 1.50, 6.96, repro,
2006-02-15,-1.20, 0.81, -5.31, 2.23, 1.52, 7.00, repro,
2006-02-16,-1.91, 0.80, -9.38, 2.24, 1.55, 7.12, repro,
2006-02-17,-1.02, 0.97, -6.48, 2.27, 1.54, 7.09, repro,
2006-02-18,-2.35, 0.85, -9.66, 2.25, 1.53, 6.97, repro,
2006-02-19,-1.23, 1.12, -9.57, 2.25, 1.52, 6.98, repro,
2006-02-20,-1.96, 0.40, -2.89, 2.24, 1.52, 6.99, repro,
2006-02-21,-2.75, -0.10, -7.21, 2.26, 1.54, 7.09, repro,
2006-02-22,-2.85, 0.43, -0.34, 2.26, 1.55, 7.09, repro,
2006-02-23,-1.58, 1.34, -2.75, 2.24, 1.53, 7.02, repro,
2006-02-24,-1.49, 0.27, -7.44, 2.23, 1.53, 7.00, repro,
2006-02-25,-2.24, 0.45, -8.54, 2.23, 1.52, 6.96, repro,
2006-02-26,-2.88, 0.13, 2.76, 2.24, 1.53, 7.03, repro,
2006-02-27,-1.99, -0.77, 6.64, 2.24, 1.54, 7.04, repro,
2006-02-28,-3.52, 0.64, 7.52, 2.30, 1.56, 7.17, repro,
2006-03-01,-4.11, -0.39, 0.28, 2.35, 1.59, 7.31, repro,
2006-03-02,-1.74, -0.72, -1.82, 2.20, 1.52, 6.94, repro,
2006-03-03,-0.89, 0.18, -3.08, 2.31, 1.55, 7.24, repro,
2006-03-04,-1.78, -0.67, -2.18, 2.22, 1.53, 6.96, repro,
2006-03-05,-3.12, 0.73, -0.82, 2.21, 1.54, 6.99, repro,
2006-03-06,-2.01, 0.70, -6.25, 2.23, 1.54, 7.05, repro,
2006-03-07,-2.84, 0.04, -1.87, 2.21, 1.53, 6.95, repro,
2006-03-08,-1.77, -0.38, -1.33, 2.22, 1.54, 7.02, repro,
2006-03-09,-0.62, -0.40, 2.73, 2.22, 1.54, 7.02, repro,
2006-03-10,-0.99, -0.80, 0.07, 2.23, 1.54, 7.02, repro,
2006-03-11,-1.44, -0.63, 0.59, 2.29, 1.57, 7.17, repro,
2006-03-12,-2.57, -0.90, -8.31, 2.28, 1.55, 7.12, repro,
2006-03-13,-2.07, 0.48, -6.08, 2.27, 1.55, 7.09, repro,
2006-03-14,-1.15, -0.02, 0.43, 2.27, 1.56, 7.17, repro,
2006-03-15,-2.82, -0.49, -5.17, 2.27, 1.57, 7.15, repro,
2006-03-16,-1.76, -1.42, -1.37, 2.33, 1.60, 7.33, repro,
2006-03-17,-2.18, -0.58, -7.56, 2.36, 1.60, 7.38, repro,
2006-03-18,-1.76, -0.44, -6.57, 2.27, 1.56, 7.14, repro,
2006-03-19,-0.85, 0.33, -8.61, 2.27, 1.58, 7.28, repro,
2006-03-20,-1.85, 0.35, -5.85, 2.26, 1.57, 7.19, repro,
2006-03-21,-2.14, -0.70, -1.35, 2.26, 1.57, 7.15, repro,
2006-03-22,-2.96, -1.63, -8.09, 2.28, 1.58, 7.19, repro,
2006-03-23,-1.72, 0.09, -13.46, 2.34, 1.61, 7.28, repro,
2006-03-24,-3.01, -1.26, 0.91, 2.36, 1.60, 7.26, repro,
2006-03-25,-1.24, 0.15, -2.15, 2.31, 1.59, 7.22, repro,
2006-03-26,-1.35, 0.72, -0.80, 2.30, 1.59, 7.19, repro,
2006-03-27,-2.98, -0.94, -2.19, 2.32, 1.60, 7.20, repro,
2006-03-28,-1.98, -0.34, 2.80, 2.25, 1.58, 7.06, repro,
2006-03-29,-1.98, -0.03, 3.78, 2.20, 1.55, 6.97, repro,
2006-03-30,-2.28, -0.23, 0.82, 2.20, 1.55, 7.00, repro,
2006-03-31,-1.72, -0.04, -0.34, 2.18, 1.55, 6.97, repro,
2006-04-01,-3.00, 0.99, -0.59, 2.19, 1.56, 6.99, repro,
2006-04-02,-1.24, -0.50, -7.78, 2.20, 1.55, 7.01, repro,
2006-04-03,-2.98, -0.73, -1.23, 2.18, 1.56, 6.98, repro,
2006-04-04,-2.24, -0.20, -5.55, 2.19, 1.55, 6.99, repro,
2006-04-05,-2.10, -0.15, 2.96, 2.22, 1.60, 7.18, repro,
2006-04-06,-1.52, -0.90, -4.64, 2.23, 1.60, 7.24, repro,
2006-04-07,-2.33, 0.34, -6.41, 2.31, 1.60, 7.31, repro,
2006-04-08,-3.08, -0.66, -3.44, 2.26, 1.56, 7.09, repro,
2006-04-09,-2.05, -0.66, -4.07, 2.19, 1.56, 7.02, repro,
2006-04-10,-1.93, -0.37, 1.45, 2.19, 1.55, 7.01, repro,
2006-04-11,-1.55, 0.47, -0.39, 2.24, 1.58, 7.24, repro,
2006-04-12,-3.09, 0.11, -4.03, 2.26, 1.59, 7.27, repro,
2006-04-13,-4.15, -0.45, -4.25, 2.20, 1.55, 7.04, repro,
2006-04-14,-2.14, 0.28, 0.40, 2.18, 1.55, 7.01, repro,
2006-04-15,-0.98, -0.10, 13.10, 2.29, 1.65, 7.40, repro,
2006-04-16,1.03, 0.55, -3.28, 2.20, 1.56, 7.07, repro,
2006-04-17,-1.43, 0.14, -0.21, 2.19, 1.55, 7.04, repro,
2006-04-18,-1.86, -0.43, -10.57, 2.19, 1.55, 7.00, repro,
2006-04-19,-0.33, 1.11, -5.14, 2.20, 1.55, 7.07, repro,
2006-04-20,-2.18, 0.38, 1.19, 2.23, 1.59, 7.18, repro,
2006-04-21,-1.32, 0.90, -6.17, 2.19, 1.55, 7.07, repro,
2006-04-22,-1.95, 0.73, -6.57, 2.17, 1.55, 7.00, repro,
2006-04-23,0.27, 1.23, -8.83, 2.22, 1.59, 7.17, repro,
2006-04-24,0.07, 0.24, -6.76, 2.24, 1.60, 7.21, repro,
2006-04-25,-1.50, 0.79, -3.82, 2.23, 1.59, 7.15, repro,
2006-04-26,-1.35, 0.44, -2.86, 2.24, 1.58, 7.20, repro,
2006-04-27,-1.12, 0.53, -6.35, 2.29, 1.61, 7.30, repro,
2006-04-28,-1.68, 0.13, -6.13, 2.24, 1.56, 7.10, repro,
2006-04-29,-0.57, -0.14, -3.81, 2.20, 1.55, 7.09, repro,
2006-04-30,-0.41, 0.93, -3.00, 2.19, 1.55, 7.06, repro,
2006-05-01,-1.22, 0.70, -11.54, 2.19, 1.54, 7.01, repro,
2006-05-02,-1.39, 1.08, -7.79, 2.19, 1.55, 7.08, repro,
2006-05-03,-0.94, 0.22, -3.75, 2.17, 1.54, 7.02, repro,
2006-05-04,-1.57, 0.80, -8.27, 2.19, 1.55, 7.04, repro,
2006-05-05,-1.58, -0.30, -4.58, 2.20, 1.54, 7.00, repro,
2006-05-06,-0.85, -1.44, -3.48, 2.19, 1.54, 7.01, repro,
2006-05-07,-1.33, 0.13, -0.36, 2.19, 1.54, 7.03, repro,
2006-05-08,-0.35, 0.52, -2.81, 2.18, 1.54, 7.03, repro,
2006-05-09,-1.06, 0.19, -7.90, 2.25, 1.58, 7.14, repro,
2006-05-10,-1.48, -0.54, -6.24, 2.19, 1.55, 7.07, repro,
2006-05-11,-2.93, -1.96, 2.51, 2.21, 1.56, 7.11, repro,
2006-05-12,-0.65, -0.60, -3.67, 2.19, 1.54, 7.03, repro,
2006-05-13,-1.37, -0.62, -6.99, 2.19, 1.55, 7.08, repro,
2006-05-14,-1.22, -0.99, -9.01, 2.19, 1.56, 7.10, repro,
2006-05-15,-1.28, 0.51, -10.69, 2.20, 1.56, 7.12, repro,
2006-05-16,-1.45, -0.61, -6.50, 2.20, 1.58, 7.22, repro,
2006-05-17,-1.42, -0.08, -0.45, 2.21, 1.57, 7.21, repro,
2006-05-18,-1.43, -0.22, 0.39, 2.19, 1.55, 7.03, repro,
2006-05-19,-1.76, -1.08, -1.02, 2.26, 1.58, 7.22, repro,
2006-05-20,-1.24, -0.21, -0.91, 2.27, 1.57, 7.17, repro,
2006-05-21,-0.99, -0.47, 2.14, 2.32, 1.64, 7.48, repro,
2006-05-22,-3.37, -1.18, 10.28, 2.28, 1.62, 7.36, repro,
2006-05-23,-1.43, -1.49, 5.06, 2.28, 1.58, 7.19, repro,
2006-05-24,-2.08, -0.80, -10.62, 2.28, 1.58, 7.27, repro,
2006-05-25,-1.88, -0.37, -6.25, 2.31, 1.62, 7.40, repro,
2006-05-26,-1.13, -1.20, -5.30, 2.30, 1.62, 7.36, repro,
2006-05-27,-0.81, -0.33, -0.07, 2.25, 1.58, 7.17, repro,
2006-05-28,-1.18, -0.71, 2.68, 2.27, 1.58, 7.20, repro,
2006-05-29,-0.73, -0.11, -1.65, 2.25, 1.58, 7.18, repro,
2006-05-30,-0.65, -0.47, -6.09, 2.31, 1.61, 7.37, repro,
2006-05-31,-0.27, -0.36, -3.40, 2.29, 1.59, 7.28, repro,
2006-06-01,-1.42, -1.20, -8.45, 2.30, 1.62, 7.36, repro,
2006-06-02,-1.53, -1.49, 1.60, 2.40, 1.64, 7.54, repro,
2006-06-03,-1.82, 0.10, 1.37, 2.37, 1.63, 7.45, repro,
2006-06-04,-3.99, -1.74, 4.00, 2.31, 1.61, 7.35, repro,
2006-06-05,-1.53, -0.31, -4.59, 2.34, 1.63, 7.44, repro,
2006-06-06,-1.88, -0.55, 1.92, 2.34, 1.62, 7.37, repro,
2006-06-07,-1.73, -0.23, -0.14, 2.34, 1.60, 7.36, repro,
2006-06-08,-0.67, -0.33, -4.34, 2.25, 1.57, 7.14, repro,
2006-06-09,-0.31, -0.20, -6.45, 2.27, 1.58, 7.18, repro,
2006-06-10,-0.32, -0.88, -4.15, 2.26, 1.58, 7.19, repro,
2006-06-11,-2.32, -0.88, -2.73, 2.25, 1.59, 7.16, repro,
2006-06-12,0.10, -0.05, -1.05, 2.31, 1.60, 7.29, repro,
2006-06-13,-0.99, -1.08, -0.46, 2.32, 1.60, 7.30, repro,
2006-06-14,-0.63, -0.61, 1.07, 2.27, 1.57, 7.14, repro,
2006-06-15,-1.63, -1.21, 2.29, 2.26, 1.59, 7.21, repro,
2006-06-16,-0.96, -1.94, 6.68, 2.26, 1.60, 7.25, repro,
2006-06-17,-2.64, -0.22, 3.86, 2.25, 1.58, 7.14, repro,
2006-06-18,-2.79, -0.15, 1.28, 2.30, 1.63, 7.41, repro,
2006-06-19,-1.04, -0.20, -3.94, 2.29, 1.62, 7.33, repro,
2006-06-20,-1.18, -0.23, -0.64, 2.30, 1.63, 7.36, repro,
2006-06-21,-1.28, -0.04, -2.42, 2.29, 1.64, 7.43, repro,
2006-06-22,-1.31, -0.95, -7.02, 2.27, 1.63, 7.37, repro,
2006-06-23,0.23, -0.23, -10.82, 2.35, 1.67, 7.51, repro,
2006-06-24,-0.48, 0.85, -5.50, 2.28, 1.62, 7.31, repro,
2006-06-25,-0.18, -0.53, -9.46, 2.28, 1.64, 7.37, repro,
2006-06-26,-0.33, 0.03, -2.93, 2.30, 1.64, 7.43, repro,
2006-07-12,18.74, 7.75, 13.33, 31.70, 10.57, 43.76, repro,
2006-07-13,-1.14, -0.53, 4.36, 2.25, 1.60, 7.42, repro,
2006-07-14,-0.35, -0.75, 2.08, 2.26, 1.60, 7.39, repro,
2006-07-15,-0.53, -0.40, -0.50, 2.24, 1.58, 7.30, repro,
2006-07-16,-0.42, -1.03, -1.61, 2.24, 1.57, 7.22, repro,
2006-07-17,1.20, -1.06, 0.50, 2.28, 1.64, 7.54, repro,
2006-07-18,-2.40, -0.36, 1.58, 2.18, 1.56, 7.11, repro,
2006-07-19,-0.23, -0.61, -0.86, 2.18, 1.56, 7.11, repro,
2006-07-20,-0.42, 0.05, 2.04, 2.20, 1.55, 7.07, repro,
2006-07-21,0.53, -0.60, -3.17, 2.19, 1.56, 7.07, repro,
2006-07-22,-0.55, -0.76, 0.97, 2.20, 1.56, 7.13, repro,
2006-07-23,0.79, 0.44, 4.62, 2.19, 1.56, 7.13, repro,
2006-07-24,-0.08, -0.47, 2.54, 2.18, 1.57, 7.10, repro,
2006-07-25,0.63, -0.32, 2.47, 2.19, 1.56, 7.11, repro,
2006-07-26,0.03, -0.19, 3.76, 2.19, 1.55, 7.05, repro,
2006-07-27,0.15, -0.47, -1.17, 2.18, 1.54, 7.02, repro,
2006-07-28,-0.76, 1.22, 5.50, 2.17, 1.56, 7.06, repro,
2006-07-29,0.23, -0.52, 4.66, 2.18, 1.56, 7.09, repro,
2006-07-30,0.39, -0.78, 7.62, 2.23, 1.61, 7.26, repro,
2006-07-31,-0.54, -0.23, 6.73, 2.19, 1.55, 7.08, repro,
2006-08-01,-0.44, -1.45, 8.27, 2.18, 1.55, 7.06, repro,
2006-08-02,-0.09, -0.49, 1.40, 2.23, 1.61, 7.35, repro,
2006-08-03,0.94, 0.23, -0.60, 2.19, 1.62, 7.31, repro,
2006-08-04,-0.67, -0.50, 2.00, 2.27, 1.65, 7.45, repro,
2006-08-05,-0.64, -0.43, 6.43, 2.23, 1.61, 7.37, repro,
2006-08-06,-0.24, -0.70, 3.21, 2.23, 1.61, 7.32, repro,
2006-08-07,0.57, -0.61, 1.10, 2.24, 1.61, 7.36, repro,
2006-08-08,-1.50, -1.14, 4.99, 2.18, 1.56, 7.08, repro,
2006-08-09,-0.08, -0.24, 8.53, 2.17, 1.56, 7.08, repro,
2006-08-10,-0.52, -1.41, 2.41, 2.20, 1.56, 7.11, repro,
2006-08-11,-0.05, 0.13, 5.90, 2.19, 1.56, 7.09, repro,
2006-08-12,-0.63, 0.25, 4.71, 2.18, 1.55, 7.05, repro,
2006-08-13,-0.40, -0.17, 7.29, 2.20, 1.57, 7.15, repro,
2006-08-14,-0.62, -1.10, 3.33, 2.18, 1.56, 7.08, repro,
2006-08-15,-0.23, 0.41, 7.10, 2.25, 1.59, 7.20, repro,
2006-08-16,-1.04, 0.17, 6.37, 2.18, 1.56, 7.07, repro,
2006-08-17,-0.77, -1.00, 3.65, 2.17, 1.56, 7.05, repro,
2006-08-18,-0.23, 0.54, 5.92, 2.23, 1.61, 7.27, repro,
2006-08-19,-0.11, -0.64, 1.12, 2.16, 1.56, 7.08, repro,
2006-08-20,-0.95, -0.38, 12.06, 2.17, 1.57, 7.06, repro,
2006-08-21,-0.82, 0.04, 9.01, 2.20, 1.57, 7.13, repro,
2006-08-22,-1.05, -0.68, 8.74, 2.20, 1.59, 7.18, repro,
2006-08-23,-0.08, -1.17, 7.99, 2.20, 1.58, 7.13, repro,
2006-08-24,-0.69, -1.29, 6.98, 2.20, 1.58, 7.16, repro,
2006-08-25,0.22, -0.16, 9.06, 2.23, 1.62, 7.33, repro,
2006-08-26,-2.26, -0.24, 4.30, 2.27, 1.65, 7.50, repro,
2006-08-27,-0.48, -0.61, 6.01, 2.28, 1.68, 7.56, repro,
2006-08-28,-0.11, -1.03, 1.06, 2.28, 1.68, 7.60, repro,
2006-08-29,1.33, -1.99, 5.38, 2.28, 1.68, 7.60, repro,
2006-08-30,-0.26, -0.85, 7.73, 2.27, 1.67, 7.55, repro,
2006-08-31,0.56, -0.51, 5.21, 2.26, 1.67, 7.49, repro,
2006-09-01,-0.38, -0.75, 7.24, 2.27, 1.67, 7.52, repro,
2006-09-02,0.54, -0.64, 3.64, 2.27, 1.68, 7.54, repro,
2006-09-03,-0.45, -1.71, 2.25, 2.27, 1.69, 7.61, repro,
2006-09-04,0.93, -0.65, 3.62, 2.35, 1.70, 7.77, repro,
2006-09-05,0.34, -0.37, 1.25, 2.35, 1.69, 7.65, repro,
2006-09-06,1.38, -1.27, 1.94, 2.28, 1.67, 7.55, repro,
2006-09-07,0.84, -0.79, 8.99, 2.33, 1.73, 7.90, repro,
2006-09-08,-0.10, -0.47, 6.35, 2.31, 1.72, 7.82, repro,
2006-09-09,-2.13, -2.20, 10.43, 2.30, 1.68, 7.61, repro,
2006-09-10,-0.85, -0.92, 9.85, 2.23, 1.62, 7.33, repro,
2006-09-11,-0.48, -1.79, 9.06, 2.26, 1.63, 7.36, repro,
2006-09-12,0.11, -1.65, 4.13, 2.25, 1.64, 7.37, repro,